Location: Shades State Park
(39.9310°N, 87.0690°W)
Time: 18:00:22
(UTC-04:00)

Daily predictions for brighter satellites

Satellite Brightness Start Highest point End
(mag) Time Altitude Azimuth Time Altitude Azimuth Time Altitude Azimuth
Cosmos 1766 3.2 19:52:00 10° S 19:55:57 77° E 19:59:56 10° N
CZ-4C R/B 4.2 19:54:46 10° W 19:59:26 28° NW 20:04:36 10° NNE
Helios 1A 4.3 19:57:38 10° ESE 20:00:50 21° ENE 20:04:02 10° NNE
Cosmos 1437 4.2 19:58:34 10° NNW 20:01:42 43° W 20:04:49 10° SSW
IDEFIX/ARIANE 42P 3.7 19:56:43 10° S 20:01:47 50° W 20:06:54 10° NNW
Timation 1 Rocket 4.4 19:56:29 10° NNW 20:02:29 87° WSW 20:08:26 10° SSE
Aureole 2 Rocket 4.2 19:58:37 10° SW 20:02:50 47° WNW 20:06:57 10° N
NOSS 3-2 (A) 4.0 19:58:44 10° SW 20:04:44 65° NW 20:11:20 10° NNE
Meteor 1-28 Rocket 3.4 20:04:55 10° NNE 20:08:31 46° E 20:12:05 10° S
Meteor 1-29 4.4 20:07:34 10° NE 20:10:06 19° E 20:12:37 10° SE
GPS 2-04 Rocket1 3.5 20:09:14 10° SW 20:12:19 31° SSE 20:15:05 12° ESE
NOAA 12 4.1 20:11:20 10° SSE 20:16:31 64° ENE 20:21:45 10° N
SAR-Lupe-1 3.9 20:14:16 10° SSE 20:17:47 71° ENE 20:21:22 10° N
ASTEX 1 4.5 20:14:17 10° NE 20:18:08 23° E 20:21:56 10° SE
Cosmos 1943 Rocket 4.0 20:16:28 10° NNE 20:19:00 13° NE 20:21:11 11° ENE
Cosmos 1452 Rocket 3.5 20:15:21 10° NNW 20:20:38 87° ENE 20:25:53 10° SSE
Cosmos 1743 Rocket 4.1 20:16:36 10° N 20:20:43 36° ENE 20:24:46 10° SE
Resurs 1-3 4.4 20:17:29 10° SE 20:21:22 32° ENE 20:25:16 10° N
Cosmos 1805 3.2 20:17:40 10° S 20:21:34 67° E 20:25:29 10° NNE
ALOS 3.3 20:20:30 10° SE 20:24:21 26° ENE 20:28:13 10° NNE
Cosmos 2369 Rocket 3.0 20:22:13 10° N 20:27:13 31° ENE 20:31:02 15° ESE
Cosmos 1943 3.8 20:23:12 10° SSE 20:28:12 34° ESE 20:33:13 10° NE
Resurs 01 Rocket 1.8 20:25:07 10° SSE 20:29:25 50° ENE 20:33:44 10° N
SL-8 R/B 3.7 20:25:06 10° WSW 20:29:54 88° NNW 20:34:18 12° ENE
CENTAUR R/B 2.8 20:24:44 10° S 20:30:19 43° ESE 20:36:32 10° NE
Helios 1B rocket 2.7 20:26:24 10° NNE 20:30:22 45° E 20:34:19 10° S
Gbstr 26 Del rocket 3.4 20:27:58 10° SSW 20:32:06 50° SE 20:36:27 13° ENE
Cosmos 1953 2.4 20:31:14 10° S 20:35:12 80° W 20:39:12 10° N
Cosmos 1603 3.8 20:29:36 10° SSW 20:35:21 88° WNW 20:41:09 10° NNE
ISS -3.4 20:32:11 10° SW 20:35:26 85° NW 20:37:49 17° NE
Meteor 2-12 Rocket 4.4 20:30:53 10° S 20:37:02 79° E 20:43:12 10° N
COSMO-SKYMED 1 4.5 20:35:08 10° N 20:39:04 33° WNW 20:42:57 10° SW
Cosmos 1420 Rocket 4.0 20:34:29 10° NNW 20:39:48 72° ENE 20:45:06 10° SSE
Cosmos 1733 3.9 20:36:30 10° SSE 20:39:58 32° E 20:43:26 10° NNE
Cosmos 1470 2.8 20:43:19 10° S 20:47:05 49° E 20:50:51 10° NNE
Nadezhda 4 Rocket 3.9 20:42:04 10° N 20:48:22 75° E 20:54:32 10° SSE
Cosmos 1674 2.8 20:44:43 10° N 20:48:32 53° E 20:51:28 16° SSE
GP-B 3.8 20:48:42 10° NNE 20:52:39 30° E 20:52:56 30° E
Spot 2 Rocket 3.4 20:48:17 10° SSE 20:53:20 88° WSW 20:58:25 10° NNW
Abrixas 3.7 20:52:00 10° W 20:54:49 38° NNW 20:56:04 25° NNE
Cosmos 1048 Rocket 4.0 20:52:37 10° SSW 20:57:55 85° WNW 21:03:11 10° NNE
Cosmos 1092 Rocket 3.9 20:52:12 10° N 20:58:22 65° E 21:04:27 10° SSE
Cosmos-2242 4.1 20:56:13 10° SSW 21:00:25 48° W 21:04:42 10° N
ATLAS 5 CENTAUR R/B 3.8 20:57:16 10° WSW 21:01:30 29° NW 21:06:02 10° NNE
Cosmos 2151 3.5 20:57:44 10° N 21:01:36 36° ENE 21:01:36 36° ENE
Cosmos 1269 Rocket 4.4 20:58:16 10° SSW 21:03:31 65° WNW 21:08:46 10° NNE
HJ-1C 4.2 21:00:20 10° S 21:03:37 52° W 21:06:56 10° NNW
Cosmos 1544 4.4 21:04:57 10° SSW 21:08:30 42° W 21:12:05 10° N
Cosmos 1655 Rocket 4.4 21:02:51 10° N 21:08:38 39° ENE 21:10:10 34° ESE
Cosmos 2026 Rocket 4.2 21:03:29 10° N 21:09:18 43° ENE 21:11:21 33° ESE
Cosmos 1174 3.8 21:04:48 10° SSW 21:09:38 87° ESE 21:12:05 23° NNE
Cosmos 158 Rocket 3.7 21:04:53 10° S 21:09:44 74° ESE 21:14:37 10° NNE
Meteor 1-16 Rocket 4.2 21:05:54 10° SSE 21:10:55 46° E 21:15:59 10° NNE
FengYun 1-2 T 4.3 21:08:03 10° S 21:13:34 77° WSW 21:19:04 10° NNW
Cosmos 1634 Rocket 3.9 21:07:35 10° S 21:13:46 68° E 21:19:56 10° NNE
USA 215 3.1 21:09:25 10° NE 21:16:00 83° SE 21:22:33 10° SW
CZ-4B DEB 3.1 21:22:26 64° WNW 21:22:26 64° WNW 21:25:23 10° NNW
OAO 3 Rocket 4.2 21:19:37 10° W 21:23:50 32° SSW 21:24:38 30° S
Meteor 1-11 4.3 21:18:33 10° N 21:24:14 55° ENE 21:25:15 48° ESE
Cosmos 1500 Rocket 4.3 21:24:38 10° NNW 21:28:58 53° W 21:32:53 12° SSW
Cosmos 1842 Rocket 4.4 21:25:06 10° SSW 21:29:17 49° W 21:33:31 10° N
Cosmos 2195 Rocket 4.4 21:25:19 10° N 21:31:40 76° E 21:34:51 32° SSE
ERS-1 Rocket 4.0 21:35:50 32° NNE 21:35:50 32° NNE 21:39:01 10° N
FENGYUN 3A 4.0 21:32:29 16° S 21:36:50 64° WSW 21:42:13 10° NNW
CZ-2D R/B 3.9 21:41:51 53° WSW 21:41:54 53° W 21:45:43 10° NNW
Cosmos 1328 4.4 21:39:18 10° NNW 21:42:32 53° NW 21:42:32 53° NW
Cosmos 1110 Rocket 3.9 21:44:57 10° NNW 21:50:18 87° WSW 21:50:19 87° SW
H-2A R/B 4.0 21:52:22 39° W 21:52:22 39° W 21:55:53 10° NNW
ALOS 4.0 21:58:47 17° SSW 22:01:40 30° W 22:05:47 10° NW
Cosmos 1943 Rocket 2.4 21:58:02 10° NNW 22:02:44 62° N 22:02:44 62° N
Cosmos 2251 Rocket 4.0 22:02:27 10° SSW 22:07:35 57° WNW 22:12:45 10° N
Cosmos 2369 Rocket 3.4 22:06:06 10° NW 22:11:15 37° WSW 22:12:52 31° SW
ISS 0.1 22:10:04 10° WNW 22:10:31 12° WNW 22:10:31 12° WNW
CENTAUR R/B 3.9 22:15:22 10° WSW 22:21:02 37° NW 22:27:23 10° NNE
